Terminal Aerodrome Forecast
Issued by NWS El Paso, TX

Home | Current Version | Previous Version | Text Only | Print | Product List | Glossary On
Versions: 1 2 3 4 5 6 7 8 9 10 11 12 13 14
000
FTUS44 KEPZ 270539
TAFELP
TAF
KELP 270539Z 2706/2806 27015G25KT P6SM SKC
     FM270900 26010KT P6SM SKC
     FM271600 24018G27KT P6SM FEW250=

USA.gov is the U.S. government's official web portal to all federal, state and local government web resources and services.